[[{"header":{"parameterUnit":"m.s-1","parameterCategory":1,"la1":30.2991,"la2":30.254,"lo1":-89.0895,"lo2":-89.0444,"dy":0.0017,"dx":0.0017,"nx":28,"ny":28,"refTime":"2024-05-27T03:00:00:Z","depth":0,"parameterNumber":2,"parameterNumberName":"U-component_of_WINDS"},"data":[0,0,0,0,0,0,0,0,0,0,0,0,0,0,0,0,0,0,0,0,0,0,0,0,0,0,0,0,0,0,0,0,0,0,0,0,0,0,0,0,0,0,0,0,0,0,0,0,0,0,0,0,0,0,0,0,0,0,2.5591,2.5591,0,2.5649,2.565,2.565,2.5592,2.559,2.5587,2.5585,2.5646,2.565,2.5654,0,0,0,0,0,0,0,0,0,0,0,0,0,2.5429,2.5432,2.5591,2.5591,2.5592,2.5649,2.565,2.5651,2.5592,2.559,2.5587,2.5584,2.5645,2.565,2.5654,0,0,0,0,0,0,0,0,0,0,0,0,0,2.5494,2.5433,2.5591,2.557,2.5569,2.5649,2.565,2.5651,2.5593,2.5589,2.5586,2.5583,2.5644,2.5649,2.5655,2.5759,0,0,2.5672,2.5675,0,0,0,0,0,0,0,0,2.5491,2.55,2.5572,2.5571,2.557,2.561,2.5615,2.5687,2.5594,2.5584,2.5585,2.5581,2.5637,2.5643,2.5662,2.5762,2.5764,2.5673,2.5676,2.5679,2.568,0,0,0,0,0,0,0,2.5486,2.5498,2.5614,2.5573,2.5572,2.5558,2.5563,2.5629,2.5629,2.5584,2.558,2.5588,2.5636,2.5656,2.5663,2.5765,2.5672,2.5678,2.5681,2.5683,2.5951,2.5954,0,0,0,0,0,0,2.5484,2.5494,2.5612,2.5616,2.5521,2.5563,2.557,2.5601,2.5628,2.5629,2.5591,2.5585,2.5648,2.5656,2.5665,2.5786,2.5678,2.5684,2.5687,2.5947,2.5952,2.5956,0,0,0,0,0,0,2.5481,2.5495,2.561,2.5554,2.5567,2.557,2.5605,2.5604,2.5624,2.5633,2.5633,2.5611,2.5646,2.5657,2.5735,2.5787,2.5686,2.5691,2.5943,2.5949,2.5954,2.6031,0,0,0,0,0,0,2.5476,2.5494,2.5534,2.5555,2.557,2.5679,2.5608,2.5607,2.5634,2.5626,2.5652,2.5653,2.5644,2.5727,2.5741,2.5793,2.5696,2.5938,2.5945,2.5952,2.6023,2.6038,2.6051,0,0,0,0,0,2.5471,2.5554,2.5536,2.5551,2.562,2.5682,2.5691,2.5678,2.5638,2.5677,2.5683,2.5653,2.578,2.5736,2.5751,2.5805,2.5935,2.5943,2.5951,2.6017,2.6035,2.605,0,0,0,0,0,0,2.554,2.5556,2.5537,2.5629,2.5655,2.5672,2.5722,2.5698,2.5736,2.5728,2.5711,2.5717,2.5799,2.5811,2.5761,2.5906,2.5851,2.5862,2.5896,2.5913,2.5926,2.5921,2.5701,0,0,0,0,0,2.5565,2.5615,2.5627,2.5707,2.5721,2.572,2.5746,2.5734,2.576,2.577,2.5782,2.5808,2.5854,2.5884,2.5927,2.6025,2.6029,2.6071,2.6084,2.6095,2.6105,2.6155,2.6173,2.5983,2.5983,2.5983,0,0,2.562,2.5635,2.5667,2.5722,2.574,2.579,2.5729,2.5786,2.5823,2.5779,2.5853,2.5863,2.5891,2.5979,2.6019,2.5991,2.6159,2.6106,2.6115,2.6118,2.6166,2.6184,2.62,2.5989,2.5988,2.5987,0,0,2.5743,2.5761,2.5828,2.5848,2.5875,2.5874,2.589,2.5911,2.5915,2.5989,2.5957,2.6001,2.6081,2.6101,2.6122,2.6253,2.6225,2.6268,2.6338,2.6387,2.6402,2.6415,2.646,2.6476,2.6278,2.6278,2.6278,0,2.5807,2.5881,2.5866,2.5925,2.5949,2.5911,2.5979,2.5998,2.6039,2.6057,2.6025,2.6123,2.614,2.6231,2.6262,2.6282,2.6299,2.6263,2.6401,2.6414,2.6426,2.6468,2.6485,2.6283,2.6282,2.6282,2.6281,0,2.5957,2.6009,2.6061,2.61,2.613,2.6193,2.6187,2.622,2.6205,2.6206,2.6281,2.63,2.6344,2.6366,2.6353,2.6455,2.6436,2.6404,2.6347,2.645,2.6488,2.6505,2.6289,2.6288,2.6286,2.6285,0,0,2.6125,2.6154,2.6172,2.6189,2.6216,2.6257,2.6318,2.636,2.6388,2.6418,2.6467,2.6535,2.6504,2.6528,2.6517,2.6561,2.666,2.6522,2.6523,2.6545,2.6771,2.6793,2.6812,2.6642,2.6645,2.6648,2.6767,0,2.6247,2.6352,2.6339,2.6439,2.6486,2.6451,2.6504,2.6526,2.6529,2.657,2.6573,2.662,2.6578,2.6592,2.6633,2.6639,2.6704,2.663,2.6687,2.6689,2.6678,2.6833,2.6857,2.6969,2.6783,2.6785,2.6787,0,2.6403,2.6437,2.6541,2.6559,2.6579,2.6627,2.6663,2.6703,2.6728,2.6727,2.6753,2.6734,2.6794,2.6738,2.6821,2.677,2.6793,2.6799,2.6803,2.6806,2.6743,2.6837,2.7004,2.702,2.6812,2.681,2.6808,0,2.6511,2.6583,2.6654,2.667,2.6694,2.6728,2.674,2.6761,2.6787,2.682,2.6836,2.6876,2.6898,2.6929,2.6921,2.6881,2.7005,2.6948,2.7004,2.7004,2.703,2.7028,2.72,2.7049,2.7049,2.7049,2.7048,0,2.6648,2.6712,2.6703,2.6746,2.6817,2.6802,2.6873,2.6881,2.69,2.6943,2.6917,2.6958,2.6946,2.6987,2.6982,2.7049,2.706,2.706,2.7058,2.7061,2.7061,2.7074,2.7065,2.7053,2.7052,2.7051,2.7051,0,2.678,2.6776,2.6851,2.6867,2.6873,2.6924,2.6938,2.6979,2.698,2.7035,2.7048,2.7049,2.7096,2.7091,2.7145,2.7141,2.7224,2.7213,2.7215,2.7212,2.7267,2.7261,2.7452,2.7475,2.7311,2.7313,2.7314,0,2.6866,2.6914,2.6935,2.6962,2.6976,2.702,2.7046,2.7034,2.7062,2.7093,2.7129,2.7174,2.7208,2.7285,2.7291,2.7331,2.7319,2.7384,2.7325,2.7327,2.7317,2.7313,2.7317,2.7394,2.7396,2.7398,2.7399,0,2.7017,2.7013,2.7051,2.7088,2.7119,2.7148,2.7175,2.7199,2.7189,2.7222,2.7269,2.7295,2.7349,2.7393,2.743,2.7442,2.7419,2.7418,2.7432,2.7435,2.7433,2.7432,2.7244,2.7413,2.7411,2.741,2.741,2.7409,2.7127,2.7167,2.7188,2.7231,2.7249,2.7274,2.7312,2.7317,2.7356,2.7398,2.7389,2.7441,2.7463,2.7512,2.7528,2.7568,2.7545,2.7567,2.7572,2.7577,2.7582,2.7429,2.7576,2.7575,2.7575,2.7574,2.7574,0,2.7275,2.7286,2.7326,2.7362,2.7396,2.7371,2.7398,2.7428,2.7474,2.7497,2.7531,2.7584,2.7626,2.7635,2.7675,2.7706,2.7696,2.7717,2.7713,2.7716,2.7602,2.7584,2.7724,2.7724,2.7724,2.7724,2.7724,2.7724,2.7355,2.7422,2.742,2.7494,2.7505,2.7556,2.7573,2.7596,2.7613,2.7674,2.7708,2.7714,2.773,2.7771,2.7809,2.781,2.7825,2.785,2.7847,2.7739,2.7724,2.771,2.7693,2.7854,2.7854,2.7957,2.7958,2.7959]},{"header":{"parameterUnit":"m.s-1","parameterCategory":1,"la1":30.2991,"la2":30.254,"lo1":-89.0895,"lo2":-89.0444,"dy":0.0017,"dx":0.0017,"nx":28,"ny":28,"refTime":"2024-05-27T03:00:00:Z","depth":0,"parameterNumber":3,"parameterNumberName":"V-component_of_WINDS"},"data":[0,0,0,0,0,0,0,0,0,0,0,0,0,0,0,0,0,0,0,0,0,0,0,0,0,0,0,0,0,0,0,0,0,0,0,0,0,0,0,0,0,0,0,0,0,0,0,0,0,0,0,0,0,0,0,0,0,0,2.7039,2.704,0,2.7122,2.7123,2.7124,2.7115,2.7114,2.7113,2.7112,2.7196,2.7199,2.7203,0,0,0,0,0,0,0,0,0,0,0,0,0,2.6871,2.6874,2.7039,2.704,2.7041,2.7122,2.7123,2.7124,2.7116,2.7114,2.7112,2.7111,2.7195,2.7199,2.7203,0,0,0,0,0,0,0,0,0,0,0,0,0,2.6948,2.6875,2.7039,2.7046,2.7048,2.7122,2.7123,2.7125,2.7116,2.7114,2.7112,2.711,2.7193,2.7198,2.7204,2.7275,0,0,2.7219,2.7222,0,0,0,0,0,0,0,0,2.6943,2.6954,2.7044,2.7046,2.7048,2.7106,2.7095,2.7175,2.7116,2.709,2.7111,2.7109,2.7168,2.7175,2.7195,2.7279,2.7282,2.722,2.7223,2.7225,2.7227,0,0,0,0,0,0,0,2.6938,2.695,2.7072,2.7045,2.7048,2.7045,2.7054,2.711,2.7139,2.7092,2.7092,2.7102,2.7168,2.719,2.7197,2.7284,2.722,2.7224,2.7228,2.723,2.7429,2.7431,0,0,0,0,0,0,2.6931,2.6946,2.7069,2.7074,2.699,2.705,2.706,2.709,2.7138,2.7144,2.7103,2.7101,2.7182,2.7191,2.72,2.7285,2.7225,2.723,2.7233,2.7427,2.7429,2.7432,0,0,0,0,0,0,2.6927,2.6942,2.7066,2.701,2.7026,2.7055,2.7088,2.7092,2.7114,2.7147,2.7152,2.712,2.7181,2.7192,2.7256,2.7288,2.7232,2.7237,2.7424,2.7427,2.7431,2.7458,0,0,0,0,0,0,2.6923,2.6941,2.6969,2.7011,2.7029,2.7121,2.709,2.7095,2.7123,2.7121,2.7164,2.7169,2.718,2.7248,2.7261,2.7294,2.7241,2.7421,2.7426,2.7429,2.7454,2.7461,2.7468,0,0,0,0,0,2.6917,2.6973,2.697,2.6985,2.7064,2.7123,2.7133,2.7145,2.7125,2.7153,2.7174,2.7168,2.7283,2.7255,2.7269,2.7304,2.7419,2.7424,2.7429,2.7451,2.746,2.7468,0,0,0,0,0,0,2.6934,2.6979,2.6976,2.7048,2.7082,2.7122,2.7157,2.7155,2.7195,2.7191,2.7204,2.7213,2.7277,2.7297,2.7266,2.7375,2.7348,2.7356,2.736,2.7369,2.7375,2.7369,2.7246,0,0,0,0,0,2.6947,2.6991,2.7028,2.7087,2.7105,2.7128,2.7154,2.716,2.7196,2.721,2.7236,2.727,2.7314,2.7342,2.7385,2.7457,2.7466,2.7488,2.7495,2.75,2.7507,2.7546,2.7556,2.7448,2.7448,2.7448,0,0,2.6972,2.7002,2.703,2.7092,2.7119,2.7164,2.714,2.7189,2.7223,2.7218,2.7279,2.7299,2.7338,2.7406,2.7437,2.7425,2.7539,2.7507,2.7511,2.7515,2.7552,2.7562,2.7571,2.7451,2.745,2.745,0,0,2.7042,2.707,2.7122,2.7149,2.719,2.7205,2.7218,2.7258,2.7271,2.7333,2.733,2.7369,2.7445,2.7473,2.7496,2.7576,2.7571,2.7589,2.7625,2.7662,2.7671,2.7678,2.7706,2.7715,2.7596,2.7596,2.7596,0,2.7069,2.7137,2.7149,2.7199,2.7226,2.7223,2.7275,2.7301,2.7354,2.7372,2.7357,2.7451,2.7477,2.7551,2.757,2.759,2.7604,2.7584,2.7669,2.7676,2.7684,2.771,2.772,2.7598,2.7597,2.7597,2.7597,0,2.7168,2.7215,2.7252,2.7303,2.7334,2.7385,2.7404,2.7434,2.7437,2.7453,2.7516,2.7547,2.7595,2.7613,2.7617,2.7687,2.7678,2.7666,2.7639,2.7696,2.772,2.7731,2.76,2.76,2.7599,2.7599,0,0,2.7251,2.7307,2.7321,2.7343,2.7388,2.7424,2.7475,2.7522,2.7547,2.7583,2.7625,2.7688,2.7677,2.7704,2.7711,2.7744,2.7803,2.7727,2.7728,2.7739,2.7881,2.7889,2.7901,2.78,2.7802,2.7804,2.7878,0,2.7325,2.7414,2.7425,2.7504,2.7547,2.7545,2.7588,2.762,2.7637,2.7675,2.7693,2.7738,2.772,2.7736,2.7769,2.7789,2.7831,2.7784,2.7838,2.784,2.7828,2.7914,2.7923,2.7992,2.7887,2.7889,2.789,0,2.7423,2.7461,2.7544,2.7582,2.7601,2.764,2.7683,2.772,2.7756,2.7765,2.7795,2.7798,2.7849,2.782,2.789,2.7857,2.788,2.7893,2.7896,2.7901,2.7868,2.7921,2.8014,2.8024,2.7906,2.7905,2.7903,0,2.7474,2.7547,2.7606,2.7625,2.7671,2.7698,2.7718,2.7752,2.7779,2.7817,2.7834,2.7878,2.7901,2.7934,2.7948,2.7925,2.8016,2.7989,2.8025,2.8025,2.8044,2.8042,2.8141,2.806,2.806,2.8059,2.8059,0,2.7555,2.7605,2.7629,2.7665,2.7722,2.7734,2.7789,2.7808,2.7838,2.7877,2.7878,2.7915,2.7931,2.797,2.798,2.8036,2.8047,2.8055,2.8058,2.8055,2.8054,2.807,2.8065,2.8062,2.8062,2.8061,2.8061,0,2.7621,2.764,2.7703,2.7741,2.7752,2.7792,2.7824,2.7858,2.7874,2.7923,2.7936,2.796,2.8006,2.8023,2.8079,2.8086,2.815,2.8149,2.8138,2.8139,2.8174,2.817,2.8286,2.8301,2.821,2.8211,2.8212,0,2.7671,2.771,2.7752,2.7778,2.7799,2.7842,2.7869,2.7883,2.7911,2.7954,2.7983,2.8029,2.8066,2.8139,2.8162,2.8204,2.8204,2.8241,2.821,2.8206,2.8203,2.82,2.8204,2.8247,2.8248,2.8249,2.8249,0,2.7758,2.7764,2.7804,2.7847,2.788,2.7914,2.7947,2.7969,2.7987,2.8019,2.8066,2.8095,2.8151,2.8196,2.824,2.826,2.8258,2.8259,2.8269,2.8267,2.8259,2.8263,2.8154,2.8256,2.8255,2.8255,2.8255,2.8254,2.7817,2.7851,2.7885,2.7929,2.7956,2.7987,2.8021,2.804,2.808,2.8127,2.8133,2.8183,2.8216,2.8274,2.8296,2.8335,2.8325,2.834,2.8344,2.8347,2.835,2.8253,2.8343,2.8343,2.8343,2.8343,2.8343,0,2.7903,2.7924,2.7965,2.8011,2.8046,2.804,2.8077,2.8106,2.815,2.8181,2.8218,2.8271,2.8314,2.834,2.8384,2.841,2.841,2.8421,2.8418,2.8423,2.8357,2.8343,2.842,2.842,2.842,2.842,2.842,2.842,2.7951,2.8008,2.8019,2.8088,2.811,2.8159,2.818,2.8208,2.8233,2.8293,2.8329,2.8345,2.8374,2.842,2.8459,2.8465,2.8481,2.8493,2.8498,2.8436,2.8428,2.842,2.8407,2.8496,2.8496,2.8561,2.8562,2.8562]}]]